Theta_e
311 312 312 313 313 314 315 315 316 317 317 317 318 318 317 317 317 317 318 317 318 318 317 317 317 317 317 317 317 318 319 320 320 321 321 321 321 320 319 318 317 314
310 310 310 310 310 311 311 312 312 313 313 313 314 314 314 315 315 315 316 316 316 316 316 316 316 316 316 315 315 315 316 317 318 319 319 320 319 319 318 318 317 316
309 309 309 309 309 309 310 310 310 311 311 311 311 312 312 312 313 313 314 314 314 314 315 315 315 315 315 314 315 314 314 314 315 315 316 316 317 317 317 317 317 316
308 308 308 308 308 308 309 309 309 309 309 309 310 310 310 311 311 312 312 313 313 313 313 314 314 314 314 314 314 314 314 314 314 313 313 313 314 314 315 315 315 314
308 308 308 308 308 308 308 308 307 308 308 308 308 308 309 309 309 310 311 311 311 312 312 312 312 313 313 313 313 313 313 313 313 312 311 311 312 312 312 312 312 313
308 307 308 307 307 307 307 307 306 306 306 306 307 307 307 307 308 308 309 309 310 310 310 311 311 311 312 312 312 312 312 312 312 311 310 310 310 310 311 311 311 311
308 308 308 307 307 307 307 306 306 306 306 306 306 306 306 306 307 307 307 307 308 308 309 309 309 310 310 310 311 311 311 311 311 310 309 309 309 309 309 309 310 310
308 308 308 307 307 307 306 306 306 306 306 307 307 306 306 305 305 306 306 306 306 307 307 307 308 308 309 309 309 309 310 310 310 309 308 308 308 308 308 308 308 308
308 308 307 307 307 307 306 306 306 306 306 306 306 306 306 306 305 305 305 305 305 306 306 306 306 307 307 307 308 308 308 308 308 308 307 307 307 307 307 307 307 307
307 307 307 307 307 307 307 306 306 306 306 306 306 306 306 305 305 305 305 304 304 305 305 305 305 305 305 306 306 306 306 306 306 305 305 305 306 306 306 306 306 306
307 307 307 307 307 307 307 307 307 306 306 306 305 305 305 305 305 305 304 304 304 304 304 303 304 304 304 304 304 304 304 304 304 304 304 304 304 305 305 305 305 305
306 306 306 306 306 306 306 306 306 306 306 306 305 305 305 305 305 305 304 304 304 303 303 303 302 302 302 303 303 303 303 303 303 302 302 303 303 303 304 304 304 304
305 305 305 305 305 305 305 305 305 305 305 305 305 305 305 305 305 304 304 304 304 304 303 302 302 302 302 302 302 302 302 302 302 301 301 301 302 302 302 303 303 303
304 304 304 304 304 304 305 305 305 304 304 304 304 304 304 304 304 304 304 304 304 303 303 302 302 302 302 302 301 301 301 301 301 300 300 300 300 301 301 302 302 303
303 303 303 303 303 303 304 304 304 304 304 303 303 303 303 303 303 303 303 303 303 303 303 303 302 302 302 301 301 301 301 300 300 299 299 299 300 300 300 301 301 302
301 302 302 302 302 302 302 302 302 302 302 302 301 301 301 301 301 301 301 301 301 302 302 302 302 302 302 301 300 300 300 300 299 298 298 298 299 299 299 300 301 301
300 300 300 300 300 300 300 300 300 300 300 299 299 299 298 298 298 298 298 298 299 299 299 300 300 301 301 300 300 300 299 299 298 298 297 298 298 298 299 299 300 300
299 299 300 300 300 300 299 299 299 298 298 297 297 297 297 296 296 296 296 296 296 296 297 297 297 298 299 299 299 299 299 299 298 297 297 297 297 298 298 298 299 299
300 300 300 300 300 300 300 300 299 299 298 297 296 296 296 295 295 295 295 295 295 295 295 295 295 296 296 297 298 298 298 298 297 297 297 297 297 297 297 298 298 298
300 300 300 300 300 301 300 301 301 300 300 299 297 297 296 295 295 295 294 294 294 294 294 294 294 295 295 295 296 296 296 296 296 296 296 296 297 297 297 297 297 298
299 300 300 300 300 300 300 300 301 301 301 300 299 298 297 296 295 295 294 294 294 293 294 294 294 294 294 294 295 295 295 294 294 294 295 296 296 296 296 297 297 297
298 299 299 299 299 299 300 300 300 301 301 300 299 299 299 298 297 296 295 295 295 294 294 295 295 294 294 294 294 294 294 293 293 294 294 294 295 295 296 296 296 296
297 297 298 298 298 299 299 299 299 299 299 298 298 298 298 298 297 297 296 296 295 295 293 294 295 295 294 294 294 293 293 292 292 293 293 293 294 295 295 295 295 295
295 296 296 296 297 297 297 297 297 297 297 296 294 294 295 294 294 295 296 295 294 294 293 292 294 294 293 293 293 293 293 292 291 291 292 292 293 293 294 294 294 295
294 294 294 295 295 295 295 296 296 296 296 295 293 292 292 293 292 292 293 294 293 293 293 292 293 294 293 293 293 293 292 291 291 290 291 291 292 292 293 293 293 294
292 293 293 293 294 294 295 295 296 296 296 294 293 292 291 292 292 290 291 292 292 291 292 292 292 292 293 292 292 292 292 291 290 290 290 291 291 291 292 292 292 292
Wind_Speed
10 12 14 16 18 19 20 21 23 24 25 25 26 27 26 26 25 25 25 25 25 26 26 26 26 27 28 29 30 32 33 34 34 35 34 35 37 38 39 41 40 39
7 9 10 13 14 15 17 18 20 21 23 23 24 25 25 25 25 24 25 25 25 25 25 25 25 25 26 27 28 30 32 33 34 35 35 35 35 35 37 38 38 38
7 7 8 9 11 12 13 15 16 18 19 20 21 22 23 23 24 24 24 24 25 26 25 26 26 26 27 27 28 30 31 33 34 35 35 36 37 37 37 37 36 35
10 9 9 9 9 10 11 12 14 14 16 17 18 19 20 21 22 23 24 24 25 25 26 26 27 27 28 29 29 31 32 33 34 34 35 37 37 38 38 37 36 36
15 13 12 12 11 11 12 12 13 14 14 15 16 16 17 18 20 21 23 24 24 25 26 26 27 28 29 30 31 32 33 34 35 34 34 37 38 38 38 37 38 38
18 17 16 15 15 14 14 14 14 14 14 14 15 15 16 17 18 19 21 22 23 25 26 26 28 29 29 30 31 33 34 35 36 34 34 37 37 36 36 36 37 37
20 20 20 19 18 17 17 16 16 16 15 16 16 15 15 16 17 18 19 21 22 23 25 26 27 28 29 30 31 33 34 36 36 35 35 37 36 36 36 36 37 37
21 21 21 21 21 20 20 20 19 19 18 18 18 17 16 17 17 18 18 20 21 23 24 25 27 28 29 29 31 33 34 36 36 35 37 37 36 37 36 35 36 37
24 24 24 23 23 23 23 23 22 22 22 21 21 21 20 19 19 19 19 19 21 22 24 25 26 27 28 29 31 33 34 36 36 35 37 37 37 38 37 36 36 37
24 25 25 25 26 26 26 26 25 25 25 24 24 24 23 22 22 21 21 21 21 23 23 25 26 27 28 29 31 32 34 35 35 35 36 37 38 38 37 36 36 37
25 25 25 26 26 26 27 27 27 27 26 26 26 26 26 25 24 23 23 23 23 24 24 25 25 26 28 29 31 32 33 35 35 36 36 37 38 38 37 36 36 37
25 26 26 26 26 26 26 26 26 26 26 26 26 27 27 26 26 26 25 25 26 25 25 26 26 26 27 28 30 31 33 34 35 36 37 37 38 38 38 37 37 37
26 26 26 26 26 26 27 26 26 26 26 26 26 26 27 27 27 27 27 27 27 27 27 27 27 27 27 28 29 30 32 34 35 35 36 37 38 38 37 37 37 38
26 26 26 26 27 27 28 28 28 28 27 27 26 26 26 26 26 27 27 28 28 28 28 28 28 28 28 29 30 30 31 33 34 34 35 36 37 37 37 37 37 38
26 27 27 27 28 29 30 30 30 29 29 28 28 27 26 25 25 25 26 27 27 28 28 28 29 29 29 29 29 30 31 32 33 34 34 35 36 36 36 36 37 38
26 27 28 28 29 30 31 31 31 31 31 30 30 29 28 27 26 25 25 25 26 26 26 27 28 29 29 29 28 29 31 32 33 34 34 34 35 36 36 36 36 37
26 28 28 29 30 30 31 31 31 31 31 31 31 31 30 29 28 28 27 26 26 26 26 25 25 25 26 27 28 28 29 31 32 34 34 34 35 35 36 36 35 36
29 30 31 32 32 33 33 33 32 32 32 32 32 31 31 31 30 30 29 29 28 28 28 28 27 25 25 26 27 27 27 29 31 33 33 34 34 35 36 36 35 36
31 32 33 34 34 35 35 35 35 35 34 34 34 33 33 33 32 32 31 30 30 31 31 31 30 29 27 26 27 27 26 27 30 32 33 34 34 34 35 35 35 35
31 32 33 34 35 35 36 36 37 37 37 37 36 36 36 36 35 34 33 32 32 32 34 33 31 30 29 27 27 27 27 27 28 30 32 34 34 34 34 34 34 34
32 33 33 34 35 35 36 37 37 38 39 39 38 38 37 37 37 36 36 35 35 34 35 36 34 31 30 29 28 28 27 26 27 29 31 33 34 33 33 34 33 33
33 34 34 35 35 35 36 36 36 37 38 38 39 40 40 39 39 39 39 39 39 37 37 39 38 33 31 30 29 28 27 27 27 29 31 32 33 32 32 33 32 32
32 34 35 35 36 36 36 36 36 37 37 37 38 39 40 40 40 40 40 39 40 39 36 38 39 35 31 30 29 27 27 28 28 29 30 31 32 32 31 31 31 31
31 33 34 35 36 36 36 37 37 37 36 36 36 37 39 39 38 39 40 39 38 38 36 36 38 36 30 28 28 27 26 27 27 28 29 30 30 31 30 30 30 30
31 32 33 34 36 36 36 36 37 37 37 36 36 36 37 39 38 38 40 39 37 37 36 34 36 36 31 27 26 26 25 26 26 26 28 28 28 29 29 29 29 29
30 32 33 33 35 36 36 36 37 37 37 37 37 36 37 38 38 37 39 41 39 37 37 35 33 34 32 27 24 24 24 24 25 25 26 28 28 27 27 27 26 27
Wind_Direction
296 291 288 286 284 284 284 284 283 282 281 281 280 281 282 283 282 279 276 274 271 269 268 267 266 265 264 261 258 257 257 259 261 262 261 257 254 251 249 249 247 245
323 311 303 299 296 296 294 292 290 287 287 286 285 285 285 284 283 280 278 276 273 272 270 268 267 266 265 263 260 257 255 255 255 256 257 258 258 256 254 253 251 248
2 345 332 322 315 313 307 302 298 295 294 293 291 291 290 288 286 282 280 278 275 274 273 271 269 267 265 263 261 258 256 255 255 254 254 254 255 255 255 255 253 251
32 21 10 359 345 337 328 319 316 313 308 305 304 301 297 292 288 285 282 279 277 276 275 273 271 269 267 266 263 261 259 257 258 256 252 252 251 251 252 252 253 254
42 37 30 22 12 2 351 342 338 334 325 320 317 311 305 300 294 290 287 283 280 279 277 275 273 271 269 267 265 263 262 261 260 258 254 253 253 251 252 252 253 253
39 36 33 28 22 15 5 358 352 346 339 332 328 323 316 308 302 297 294 291 287 284 282 279 277 275 272 270 268 266 264 263 262 259 256 256 256 254 253 252 252 251
33 31 29 25 22 18 12 7 1 355 348 340 336 334 326 316 310 307 303 298 294 289 286 283 281 279 277 274 271 269 267 266 264 261 259 258 258 256 255 253 252 253
31 28 25 22 19 16 13 10 6 1 355 348 345 342 335 327 321 316 310 303 298 293 291 288 285 282 280 277 273 272 271 269 266 262 260 260 259 258 257 256 255 255
30 28 26 23 20 17 13 9 6 2 358 353 349 346 343 338 333 326 319 311 304 299 296 292 290 287 284 281 277 275 273 271 268 264 262 261 259 259 258 256 256 256
30 27 25 23 20 18 14 11 8 4 1 356 351 348 346 343 339 335 328 321 314 309 305 300 297 294 291 286 282 279 276 274 271 268 265 263 261 261 260 258 256 256
28 26 23 21 18 16 13 11 9 6 4 360 355 351 349 346 342 339 334 328 322 317 312 308 305 301 297 293 289 285 282 278 274 271 268 266 265 264 262 260 258 258
25 23 21 19 17 15 12 10 8 5 4 1 357 354 351 348 344 341 337 331 327 323 318 314 310 306 300 296 293 290 286 282 278 275 272 270 268 266 265 262 260 260
21 20 18 16 14 13 11 9 7 5 3 1 358 354 352 349 345 342 339 335 330 327 324 320 316 311 305 301 297 292 289 285 281 278 276 274 271 269 267 264 263 262
18 16 14 12 10 9 7 6 5 4 2 1 358 355 352 349 346 342 339 336 333 330 327 324 320 316 312 308 304 299 295 290 286 282 279 277 275 273 270 267 266 265
13 12 10 9 6 5 4 2 1 0 359 358 357 355 353 350 347 343 339 336 334 331 328 325 321 319 317 314 309 305 300 295 290 285 282 279 278 276 273 270 268 267
9 8 7 5 3 2 1 359 358 357 356 355 354 352 351 349 347 345 341 337 334 330 327 325 322 320 318 316 312 307 303 297 292 287 284 281 279 276 274 271 270 269
6 5 4 2 0 359 357 356 355 354 353 351 350 349 348 347 345 343 342 339 334 330 326 324 321 320 317 315 311 307 303 297 292 288 285 281 278 276 274 273 271 270
3 2 1 360 358 356 354 353 352 351 350 348 347 346 345 343 342 341 339 338 335 330 326 324 322 322 319 315 312 308 303 298 292 288 284 281 278 276 274 274 273 271
1 360 359 357 355 353 351 351 349 348 347 346 344 343 342 341 340 338 337 336 334 330 327 324 324 325 323 318 315 311 306 301 294 288 284 281 278 276 274 273 272 271
358 357 356 354 352 350 348 348 346 345 344 343 341 340 339 338 336 335 335 334 332 330 327 324 324 326 324 320 316 313 308 301 294 289 285 281 278 276 273 272 271 270
354 353 352 350 348 347 345 344 343 342 341 339 338 337 336 335 334 333 332 331 330 329 327 324 324 326 326 322 317 313 308 301 294 290 286 282 280 277 274 273 271 270
350 347 346 345 343 342 340 340 339 338 337 335 333 332 332 332 331 330 329 328 327 327 326 324 324 326 327 323 319 315 309 302 296 292 287 284 282 279 277 275 272 270
344 342 340 339 338 337 336 335 334 333 332 331 329 328 327 328 327 326 326 325 324 324 324 322 322 325 326 323 320 317 311 304 298 293 289 285 283 282 279 277 275 272
338 337 336 335 333 333 332 331 330 329 328 327 326 324 323 323 323 322 322 322 321 321 321 320 319 323 326 323 320 319 314 306 299 293 288 285 284 284 281 278 277 275
334 333 332 332 330 329 328 327 327 325 324 324 323 321 320 320 320 319 318 319 319 319 319 318 318 321 324 323 321 319 315 308 299 292 287 285 284 283 282 280 278 277
329 328 328 327 326 325 324 324 323 322 321 321 320 319 318 317 317 317 316 316 317 317 317 317 317 319 322 322 319 317 314 308 298 289 284 284 284 282 281 280 278 277